Date,TemperatureHighF,TemperatureAvgF,TemperatureLowF,DewpointHighF,DewpointAvgF,DewpointLowF,HumidityHigh,HumidityAvg,HumidityLow,PressureMaxIn,PressureMinIn,WindSpeedMaxMPH,WindSpeedAvgMPH,GustSpeedMaxMPH,PrecipitationSumIn
2013-1-1,82.0,73.7,70.0,68.0,65.1,61.0,91,75,61,30.16,30.02,23,14,25,0.00
2013-1-2,84.0,73.7,70.0,73.0,69.2,68.0,95,86,65,30.09,30.00,11,5,13,0.00
2013-1-3,82.0,75.0,70.0,73.0,70.7,68.0,96,88,71,30.12,30.02,8,1,11,0.01
2013-1-4,88.0,76.5,72.0,78.0,72.3,71.0,97,88,62,30.20,30.09,6,0,10,0.01
2013-1-5,82.0,75.2,73.0,73.0,71.4,70.0,95,88,71,30.21,30.11,10,1,17,0.01
2013-1-6,85.0,77.2,74.0,73.0,71.9,70.0,93,84,67,30.16,30.04,14,1,21,0.00
2013-1-7,88.0,76.4,74.0,72.0,70.6,69.0,91,83,55,30.13,26.41,9,1,13,0.00
2013-1-8,89.0,80.4,76.0,74.0,72.7,70.0,92,78,60,30.15,30.08,25,17,28,0.00
2013-1-9,86.0,78.2,75.0,74.0,72.1,71.0,88,82,67,30.23,26.41,27,23,32,0.01
2013-1-10,83.0,77.1,74.0,71.0,69.5,68.0,87,78,68,30.25,30.13,29,22,33,0.01
2013-1-11,85.0,76.7,73.0,71.0,67.7,65.0,86,74,57,30.22,28.76,27,20,31,0.00
2013-1-12,86.0,76.7,73.0,71.0,68.8,67.0,86,77,60,30.15,30.06,23,17,25,0.00
2013-1-13,83.0,76.2,73.0,70.0,66.7,63.0,88,73,58,31.81,26.41,29,18,33,0.00
2013-1-14,85.0,75.8,72.0,68.0,65.5,62.0,80,71,55,30.14,26.41,21,16,25,0.00
2013-1-15,86.0,76.1,72.0,70.0,67.5,66.0,83,76,56,30.12,30.03,20,16,22,0.00
2013-1-16,87.0,76.4,72.0,73.0,68.8,65.0,89,78,59,30.09,26.41,18,11,22,0.00
2013-1-17,78.0,73.4,67.0,71.0,67.7,60.0,92,82,68,30.11,30.00,15,5,24,0.16
2013-1-18,67.0,63.2,61.0,60.0,53.8,50.0,81,71,60,31.84,26.41,8,0,18,0.05
2013-1-19,74.0,69.4,65.0,67.0,62.7,59.0,89,79,71,31.17,26.41,8,0,14,0.00
2013-1-20,77.0,72.3,68.0,71.0,68.1,66.0,94,87,74,30.14,25.95,13,2,17,0.00
2013-1-21,83.0,73.7,70.0,71.0,67.6,63.0,92,81,64,30.08,26.41,18,5,24,0.00
2013-1-22,75.0,69.9,66.0,63.0,60.6,58.0,89,73,57,30.18,26.41,20,11,27,0.00
2013-1-23,73.0,68.8,65.0,62.0,59.1,57.0,81,71,61,30.25,26.41,20,15,28,0.00
2013-1-24,75.0,68.8,64.0,63.0,59.7,57.0,82,73,57,30.28,24.92,20,11,26,0.00
2013-1-25,75.0,69.9,65.0,63.0,59.0,56.0,80,69,55,30.27,26.41,17,10,22,0.00
2013-1-26,75.0,70.4,66.0,67.0,63.8,60.0,86,80,63,31.55,26.41,16,7,22,0.00
2013-1-27,77.0,73.1,71.0,69.0,67.2,66.0,92,82,72,31.41,25.79,24,13,29,0.00
2013-1-28,83.0,75.3,72.0,69.0,66.2,64.0,80,74,61,30.28,26.41,26,20,30,0.00
2013-1-29,83.0,76.0,73.0,70.0,68.3,66.0,83,78,65,30.20,30.09,24,19,28,0.00
2013-1-30,81.0,75.4,73.0,71.0,68.0,66.0,89,78,65,30.11,26.41,25,16,30,0.00
2013-1-31,77.0,71.6,67.0,74.0,64.6,54.0,91,79,63,30.16,26.41,17,8,23,0.00
2013-2-1,73.0,66.2,60.0,60.0,54.4,48.0,71,66,58,30.24,30.12,24,18,32,0.00
2013-2-2,76.0,67.8,62.0,60.0,57.6,51.0,82,70,56,31.37,26.20,17,11,24,0.00
2013-2-3,74.0,68.1,65.0,61.0,55.5,41.0,79,65,38,32.24,21.78,16,8,22,0.00
2013-2-4,75.0,67.2,62.0,58.0,52.7,46.0,71,60,46,30.13,28.64,17,11,23,0.00
2013-2-5,86.0,72.7,65.0,67.0,63.1,57.0,88,73,50,30.07,26.41,10,4,14,0.00
2013-2-6,86.0,74.3,68.0,70.0,67.1,64.0,93,79,57,32.25,26.39,17,8,21,0.00
2013-2-7,85.0,75.2,70.0,70.0,67.1,65.0,91,76,60,32.17,21.56,17,9,20,0.00
2013-2-8,80.0,74.9,72.0,74.0,70.6,67.0,94,86,74,30.05,26.41,13,6,19,0.00
2013-2-9,80.0,73.5,68.0,70.0,65.5,60.0,85,76,67,32.15,26.41,22,13,27,0.00
2013-2-10,82.0,75.4,72.0,68.0,65.5,64.0,82,72,58,30.21,26.41,25,22,30,0.00
2013-2-11,86.0,76.0,72.0,69.0,68.0,65.0,87,77,57,30.19,26.41,27,19,30,0.00
2013-2-12,85.0,77.2,73.0,72.0,69.9,67.0,91,79,64,30.11,26.41,22,13,25,0.00
2013-2-13,84.0,77.4,74.0,74.0,72.2,71.0,93,84,69,30.03,24.93,14,8,19,0.00
2013-2-14,83.0,78.3,75.0,75.0,73.0,71.0,92,84,73,30.00,26.41,16,7,21,0.00
2013-2-15,73.0,69.7,68.0,69.0,67.6,65.0,96,93,86,32.24,26.41,20,11,28,0.52
2013-2-16,72.0,67.9,61.0,69.0,60.9,52.0,97,79,60,30.09,22.45,26,13,38,0.80
2013-2-17,61.0,56.1,52.0,52.0,38.4,30.0,71,52,34,31.43,26.41,29,17,44,0.04
2013-2-18,71.0,61.5,53.0,58.0,49.2,35.0,73,64,48,30.28,25.58,23,17,29,0.00
2013-2-19,81.0,71.8,66.0,68.0,64.3,58.0,91,78,63,30.17,26.40,22,13,26,0.00
2013-2-20,81.0,71.4,67.0,71.0,67.6,63.0,97,88,68,30.11,25.14,15,5,17,0.41
2013-2-21,85.0,75.9,70.0,70.0,68.8,67.0,96,80,58,31.72,24.49,16,12,18,0.12
2013-2-22,86.0,77.2,72.0,73.0,71.6,69.0,94,84,65,31.75,25.99,18,14,23,0.00
2013-2-23,85.0,78.0,74.0,75.0,72.5,71.0,93,83,70,30.04,21.56,22,13,27,0.00
2013-2-24,86.0,79.1,75.0,75.0,73.6,72.0,96,84,67,32.24,26.08,7,2,10,0.00
2013-2-25,84.0,79.0,75.0,75.0,73.5,72.0,94,84,67,31.73,20.63,22,14,26,0.00
2013-2-26,83.0,79.0,76.0,76.0,73.6,72.0,92,84,73,29.91,21.56,22,12,28,0.00
2013-2-27,84.0,77.9,74.0,76.0,71.8,68.0,92,82,67,31.26,26.30,16,5,21,0.00
2013-2-28,75.0,70.5,66.0,70.0,56.8,46.0,88,64,40,31.03,25.17,19,7,23,0.02
2013-3-1,70.0,66.1,62.0,60.0,56.0,51.0,86,71,61,29.99,26.35,16,6,22,0.02
2013-3-2,66.0,60.4,58.0,52.0,46.7,40.0,71,61,50,30.05,26.41,21,12,32,0.01
2013-3-3,62.0,58.6,53.0,50.0,47.4,43.0,86,67,57,30.14,26.41,23,9,40,0.02
2013-3-4,66.0,57.7,51.0,50.0,46.1,42.0,74,66,53,31.60,26.05,21,8,28,0.01
2013-3-5,79.0,67.6,57.0,60.0,55.4,48.0,83,66,51,30.17,26.41,16,5,18,0.00
2013-3-6,75.0,67.1,62.0,64.0,58.5,48.0,88,74,61,31.50,21.56,22,8,33,0.00
2013-3-7,65.0,59.5,54.0,52.0,45.4,39.0,72,60,41,30.20,30.09,23,10,30,0.00
2013-3-8,75.0,65.5,58.0,62.0,55.8,50.0,84,71,57,30.19,26.41,13,6,18,0.00
2013-3-9,75.0,68.4,63.0,63.0,58.4,54.0,84,71,60,30.17,30.09,20,10,26,0.00
2013-3-10,80.0,71.1,67.0,63.0,59.2,56.0,74,66,54,30.13,30.02,24,17,28,0.00
2013-3-11,82.0,73.1,68.0,68.0,63.5,60.0,80,72,60,30.08,26.41,23,18,29,0.00
2013-3-12,82.0,75.2,71.0,69.0,67.2,64.0,89,77,64,30.01,26.41,20,12,24,0.00
2013-3-13,76.0,69.6,62.0,67.0,57.3,43.0,90,67,33,30.11,28.65,18,8,26,0.00
2013-3-14,73.0,65.9,59.0,59.0,49.3,39.0,73,57,29,30.19,26.43,23,13,31,0.00
2013-3-15,73.0,65.6,59.0,59.0,51.9,43.0,76,62,41,30.25,30.14,22,13,29,0.00
2013-3-16,80.0,69.7,64.0,60.0,57.0,55.0,76,65,49,31.04,26.41,17,9,21,0.00
2013-3-17,84.0,73.4,68.0,66.0,62.1,58.0,81,69,51,31.23,20.52,19,15,23,0.00
2013-3-18,81.0,75.2,72.0,71.0,68.7,65.0,92,81,70,32.12,21.05,23,13,27,0.00
2013-3-19,74.0,71.7,68.0,72.0,68.2,65.0,97,89,75,31.79,25.15,16,5,26,0.67
2013-3-20,81.0,73.4,68.0,70.0,66.8,60.0,92,80,65,31.77,24.94,18,4,25,0.01
2013-3-21,78.0,71.8,67.0,65.0,62.2,60.0,89,72,56,32.30,25.58,12,3,17,0.00
2013-3-26,70.0,63.6,58.0,51.0,47.0,40.0,65,55,34,30.21,26.08,26,17,36,0.00
2013-3-27,66.0,58.4,51.0,49.0,43.0,37.0,69,57,40,30.26,26.41,22,11,31,0.00
2013-3-28,74.0,64.9,57.0,56.0,49.4,41.0,70,58,44,30.25,26.40,18,10,25,0.00
2013-3-29,76.0,68.6,63.0,60.0,55.5,50.0,70,63,54,30.27,24.94,18,13,23,0.00
2013-3-30,79.0,71.2,67.0,61.0,58.0,55.0,73,63,52,32.24,26.40,19,13,22,0.00
2013-3-31,82.0,74.7,69.0,70.0,63.6,-99.9,88,72,60,32.48,22.61,19,14,22,0.00
2013-4-1,85.0,76.7,71.0,73.0,70.7,68.0,92,82,66,22.61,22.61,14,6,20,0.00
2013-4-2,85.0,76.2,72.0,70.0,66.8,60.0,87,74,45,32.24,22.61,7,1,11,0.00
2013-4-3,88.0,79.0,73.0,74.0,71.1,67.0,89,78,61,30.67,24.39,18,13,21,0.00
2013-4-4,85.0,79.0,75.0,76.0,73.2,71.0,93,83,71,30.03,25.57,19,12,22,0.00
2013-4-5,77.0,71.8,67.0,75.0,68.3,60.0,95,89,74,31.99,26.41,23,10,34,1.41
2013-4-6,70.0,67.3,65.0,61.0,59.7,57.0,80,76,72,31.99,31.99,18,14,28,0.94
2013-4-9,85.0,79.8,76.0,73.0,71.0,69.0,83,75,67,31.74,26.41,23,19,28,0.00
2013-4-10,90.0,80.4,75.0,77.0,73.5,69.0,92,80,64,32.25,26.10,25,18,28,0.00
2013-4-11,84.0,79.0,77.0,77.0,74.7,73.0,93,86,73,32.24,32.24,27,23,31,0.33
2013-4-12,88.0,81.2,77.0,77.0,75.7,74.0,95,84,69,32.24,26.41,26,10,33,0.29
2013-4-13,87.0,80.9,77.0,77.0,74.6,71.0,92,82,67,32.28,22.19,16,5,20,0.02
2013-4-14,90.0,82.1,77.0,77.0,75.3,74.0,91,81,65,32.42,26.10,19,14,22,0.00
2013-4-15,89.0,82.5,79.0,79.0,76.3,73.0,92,82,67,32.06,26.41,18,7,19,0.00
2013-4-16,92.0,83.1,79.0,78.0,75.9,73.0,92,80,62,26.41,26.41,21,13,24,0.00
2013-4-17,91.0,82.2,78.0,78.0,73.8,72.0,85,76,62,26.41,26.41,20,15,24,0.00
2013-4-18,91.0,81.8,73.0,77.0,73.7,71.0,92,77,61,26.41,26.41,28,19,33,0.04
2013-4-19,91.0,82.7,78.0,78.0,74.3,72.0,85,76,64,26.41,26.41,26,19,30,0.01
2013-4-20,89.0,82.2,77.0,77.0,74.8,67.0,89,79,67,26.41,26.41,24,6,35,0.00
2013-4-21,93.0,81.2,74.0,76.0,72.4,64.0,88,75,57,26.41,26.41,26,6,30,0.00
2013-4-22,86.0,78.5,70.0,74.0,71.1,67.0,92,79,63,26.41,26.41,20,6,25,0.59
2013-4-23,85.0,78.6,74.0,73.0,70.1,66.0,87,76,61,30.67,24.94,26,15,33,0.01
2013-4-24,87.0,79.0,75.0,70.0,67.1,64.0,74,67,57,28.16,26.41,25,17,33,0.00
2013-4-25,85.0,78.3,75.0,69.0,65.4,63.0,72,65,52,28.12,28.12,25,16,32,0.00
2013-4-26,81.0,77.2,74.0,67.0,65.0,63.0,73,66,57,31.60,26.41,21,16,29,0.00
2013-4-27,82.0,77.3,74.0,71.0,66.1,63.0,81,68,60,26.41,26.41,23,17,28,0.00
2013-4-28,86.0,78.6,73.0,71.0,68.9,-99.9,92,76,60,28.49,25.93,25,19,31,0.07
2013-4-29,87.0,78.0,74.0,76.0,72.0,69.0,91,82,65,31.76,24.48,26,17,32,0.29
2013-4-30,89.0,81.2,76.0,75.0,72.3,69.0,85,75,59,31.47,26.41,23,12,27,0.08
2013-5-1,87.0,80.6,77.0,75.0,73.5,72.0,87,79,65,31.90,23.04,20,10,24,0.01
2013-5-2,82.0,73.8,68.0,75.0,70.9,65.0,96,90,78,29.94,26.41,24,12,31,2.97
2013-5-3,83.0,75.9,70.0,74.0,70.4,68.0,95,84,70,32.28,26.40,11,4,18,1.57
2013-5-4,80.0,77.3,75.0,70.0,67.5,62.0,77,72,65,26.41,26.41,24,14,33,0.15
2013-5-5,77.0,74.8,73.0,65.0,61.8,60.0,73,64,58,26.42,26.41,23,14,30,0.00
2013-5-6,79.0,73.9,69.0,64.0,60.6,55.0,70,63,56,26.41,26.41,15,8,24,0.00
2013-5-7,80.0,75.8,73.0,66.0,64.4,62.0,79,68,60,26.41,26.41,10,4,15,0.00
2013-5-8,87.0,77.5,70.0,70.0,65.7,62.0,78,67,54,31.20,22.19,7,1,46,0.00
2013-5-9,90.0,80.1,73.0,76.0,70.2,63.0,86,72,60,32.24,22.19,17,6,19,0.00
2013-5-10,93.0,81.8,77.0,79.0,72.1,-99.9,90,77,60,31.65,25.57,16,4,19,0.00
2013-5-11,89.0,82.6,79.0,76.0,74.1,72.0,87,76,63,32.25,23.08,17,10,19,0.00
2013-5-12,88.0,81.4,78.0,74.0,70.5,-99.9,85,72,58,32.24,26.40,19,8,26,0.00
2013-5-13,87.0,81.5,78.0,75.0,71.6,68.0,81,72,62,32.25,26.20,16,4,23,0.00
2013-5-14,82.0,79.2,76.0,73.0,68.8,63.0,83,71,62,32.26,25.87,24,16,29,0.00
2013-5-15,82.0,77.9,74.0,69.0,65.2,62.0,76,65,57,31.81,25.61,23,16,29,0.00
2013-5-16,91.0,73.3,74.0,70.0,46.0,-99.9,74,65,48,32.24,25.36,21,14,26,0.00
2013-5-17,93.0,79.8,74.0,77.0,63.4,-99.9,84,73,56,31.65,24.48,16,6,20,0.00
2013-5-18,92.0,83.5,78.0,77.0,73.8,71.0,85,73,57,32.25,23.22,16,11,20,0.00
2013-5-19,93.0,83.0,78.0,75.0,73.0,71.0,83,73,54,31.61,25.94,18,13,21,0.00
2013-5-20,91.0,80.6,72.0,76.0,73.9,69.0,96,81,61,32.29,23.09,24,14,29,2.01
2013-5-21,90.0,81.8,76.0,78.0,74.9,73.0,95,80,63,31.99,24.83,23,14,26,2.01
2013-5-22,90.0,82.8,79.0,78.0,74.8,70.0,88,78,59,30.66,26.41,15,8,18,0.00
2013-5-23,86.0,82.4,79.0,76.0,74.0,72.0,90,76,66,31.57,25.93,14,8,18,0.04
2013-5-28,81.0,78.9,76.0,76.0,73.9,71.0,91,85,79,32.25,26.41,26,18,30,0.16
2013-5-29,78.0,75.7,73.0,76.0,73.4,71.0,98,93,83,32.25,23.64,32,17,39,0.15
2013-5-30,90.0,78.9,74.0,80.0,75.1,73.0,97,89,66,31.60,26.41,32,15,36,0.18
2013-5-31,90.0,80.1,75.0,79.0,75.0,73.0,96,86,69,32.24,24.94,21,7,24,0.13
2013-6-1,88.0,78.9,75.0,78.0,75.4,73.0,96,90,72,31.76,31.74,18,4,25,0.09
2013-6-2,89.0,79.1,75.0,80.0,73.5,-99.9,96,87,67,31.74,31.74,23,4,27,0.07
2013-6-3,86.0,79.4,75.0,78.0,74.9,72.0,93,86,76,31.74,31.74,20,7,23,0.05
2013-6-4,82.0,79.0,75.0,79.0,76.0,73.0,94,91,85,31.89,28.87,20,10,25,0.05
2013-6-5,87.0,81.8,80.0,80.0,77.7,76.0,92,88,80,28.87,28.87,22,17,26,0.05
2013-6-6,86.0,81.2,74.0,79.0,77.2,72.0,96,88,77,28.87,26.41,29,14,38,0.05
2013-6-7,90.0,81.5,75.0,82.0,77.1,72.0,94,87,75,26.41,26.41,23,12,27,0.03
2013-6-8,94.0,84.2,77.0,81.0,78.0,75.0,95,83,65,26.41,26.41,19,13,22,0.03
2013-6-9,88.0,83.6,80.0,80.0,77.4,75.0,89,82,72,31.42,26.09,27,19,31,0.03
2013-6-10,91.0,84.0,80.0,80.0,77.4,76.0,89,81,68,31.43,24.48,23,16,26,0.02
2013-6-11,92.0,85.3,80.0,81.0,78.0,77.0,92,80,63,26.41,26.41,16,6,19,0.02
2013-6-12,88.0,81.8,78.0,79.0,76.4,73.0,93,84,70,26.41,26.41,15,5,20,0.02
2013-6-13,89.0,82.8,78.0,77.0,74.9,72.0,90,78,63,26.41,26.41,13,4,16,0.01
2013-6-14,89.0,83.5,78.0,76.0,73.4,70.0,81,72,62,26.41,26.41,11,3,15,0.01
2013-6-15,92.0,84.1,80.0,78.0,74.9,73.0,83,74,60,26.41,26.41,10,2,14,0.01
2013-6-16,93.0,84.7,81.0,81.0,76.4,73.0,87,76,64,26.41,26.41,18,10,22,0.01
2013-6-17,93.0,85.2,81.0,81.0,77.9,76.0,87,79,66,26.41,26.41,19,15,22,0.01
2013-6-18,95.0,85.5,81.0,81.0,78.3,77.0,90,80,61,26.41,26.41,19,14,21,0.01
2013-6-19,94.0,86.3,81.0,80.0,77.6,76.0,86,76,61,26.41,26.41,17,12,19,0.00
2013-6-20,96.0,86.0,82.0,81.0,76.6,74.0,84,74,58,0.00,40.00,20,13,22,0.00
2013-6-22,93.0,88.7,83.0,79.0,77.2,76.0,80,69,60,26.41,26.41,18,13,21,0.00
2013-6-23,86.0,81.9,77.0,79.0,75.8,74.0,93,82,72,26.41,26.41,25,14,29,0.24
2013-6-24,93.0,84.0,78.0,79.0,76.2,74.0,88,78,63,0.00,40.00,21,17,37,0.04
2013-6-25,93.0,83.5,81.0,80.0,76.7,75.0,89,80,62,0.00,40.00,21,15,28,0.02
2013-6-26,92.0,84.4,80.0,79.0,76.4,74.0,89,78,62,26.41,26.41,21,15,23,0.04
2013-6-27,92.0,83.3,80.0,78.0,75.8,73.0,85,78,63,0.00,40.00,18,8,25,0.01
2013-6-28,93.0,85.9,81.0,79.0,75.6,73.0,82,72,58,26.41,26.41,13,1,16,0.00
2013-6-29,91.0,85.1,81.0,78.0,76.2,73.0,84,75,64,26.41,26.41,0,0,1,0.00
2013-6-30,88.0,83.7,80.0,77.0,75.5,73.0,89,77,67,26.41,26.41,0,0,0,0.01
2013-7-1,89.0,83.7,81.0,78.0,75.8,72.0,82,77,67,0.00,40.00,0,0,0,0.01
2013-7-2,88.0,81.3,77.0,79.0,77.0,75.0,96,88,65,26.41,26.41,0,0,2,0.08
2013-7-3,91.0,82.7,77.0,80.0,77.0,74.0,96,84,68,26.41,26.41,0,0,1,0.22
2013-7-4,92.0,84.8,80.0,80.0,77.0,75.0,87,78,64,26.41,26.41,0,0,2,0.01
2013-7-5,83.0,80.1,75.0,79.0,76.4,73.0,95,89,82,26.41,26.41,25,8,40,0.01
2013-7-6,89.0,82.8,79.0,80.0,69.2,-99.9,94,80,67,26.41,26.41,25,19,29,0.01
2013-7-7,89.0,83.7,80.0,79.0,76.1,73.0,88,78,70,26.41,26.41,29,18,37,0.01
2013-7-8,88.0,82.6,79.0,77.0,74.9,72.0,90,78,63,26.41,26.41,28,18,32,0.01
2013-7-9,88.0,82.0,77.0,76.0,73.1,69.0,87,75,60,26.41,26.41,16,7,19,0.00
2013-7-10,92.0,81.3,78.0,77.0,70.2,-99.9,85,73,56,0.00,40.00,19,5,24,0.01
2013-7-11,93.0,84.5,80.0,79.0,75.8,73.0,85,76,59,26.41,26.41,17,7,20,0.01
2013-7-12,90.0,83.1,80.0,77.0,74.8,73.0,85,76,63,26.41,26.41,18,4,22,0.00
2013-7-13,89.0,82.6,76.0,77.0,74.9,72.0,91,78,67,26.41,26.41,19,9,24,0.00
2013-7-14,90.0,81.6,74.0,79.0,74.6,70.0,93,80,67,26.41,26.41,22,11,33,0.00
2013-7-15,87.0,78.3,73.0,77.0,74.1,71.0,96,87,67,0.00,40.00,27,10,36,0.01
2013-7-16,83.0,79.5,76.0,78.0,74.8,72.0,94,86,75,26.41,26.41,31,19,38,0.01
2013-7-17,82.0,77.6,74.0,79.0,54.4,-99.9,100,79,77,26.41,26.41,29,12,34,0.02
2013-7-18,82.0,77.3,74.0,77.0,-1.3,-99.9,100,52,86,26.41,26.41,22,8,29,0.01
2013-7-19,79.0,79.0,79.0,-99.9,-99.9,-99.9,0,0,100,26.41,26.41,17,13,20,0.01
2013-7-22,94.0,87.1,82.0,80.0,77.2,76.0,84,73,60,26.41,26.41,15,10,18,0.00
2013-7-23,91.0,84.7,81.0,78.0,75.9,72.0,88,76,59,26.41,26.41,15,6,20,0.01
2013-7-24,90.0,84.3,80.0,76.0,73.9,72.0,83,72,62,26.41,26.41,6,2,18,0.01
2013-7-25,88.0,84.3,81.0,75.0,73.1,71.0,78,69,59,26.41,26.41,10,4,18,0.01
2013-7-26,91.0,85.3,82.0,78.0,74.5,72.0,78,71,58,26.41,26.41,14,6,20,0.01
2013-7-27,90.0,86.1,83.0,78.0,75.2,72.0,80,70,60,26.41,26.41,13,4,17,0.01
2013-7-28,93.0,86.2,80.0,78.0,75.3,72.0,81,70,59,26.41,26.41,10,4,16,0.00
2013-7-29,95.0,86.5,82.0,81.0,77.3,75.0,84,75,62,0.00,40.00,20,10,24,0.00
2013-7-30,92.0,85.0,80.0,81.0,77.9,75.0,90,80,69,26.41,26.41,21,13,30,0.00
2013-7-31,91.0,86.2,83.0,79.0,77.1,75.0,84,75,65,26.41,26.41,21,16,25,0.00
2013-8-1,93.0,85.8,82.0,78.0,76.0,74.0,81,73,60,26.41,26.41,20,12,25,0.00
2013-8-2,90.0,84.2,80.0,78.0,74.7,72.0,81,73,62,26.41,26.41,10,2,20,0.00
2013-8-3,93.0,86.3,82.0,78.0,75.6,73.0,80,71,56,26.41,26.41,11,4,15,0.00
2013-8-4,92.0,85.9,82.0,78.0,75.3,71.0,82,71,58,26.41,26.41,8,2,12,0.00
2013-8-5,89.0,85.4,81.0,75.0,73.1,67.0,78,67,49,26.41,26.41,10,2,17,0.00
2013-8-6,90.0,83.4,77.0,80.0,75.9,73.0,92,79,67,26.41,26.41,26,6,31,0.00
2013-8-7,91.0,85.4,82.0,80.0,76.4,74.0,84,75,62,0.00,40.00,21,9,23,0.00
2013-8-8,94.0,86.5,83.0,79.0,76.8,74.0,84,73,60,26.41,26.41,25,20,31,0.00
2013-8-9,91.0,83.4,77.0,79.0,75.4,73.0,90,77,63,26.41,26.41,24,16,44,0.00
2013-8-10,93.0,85.9,82.0,79.0,77.2,75.0,85,76,64,26.41,26.41,28,23,33,0.00
2013-8-11,91.0,85.5,83.0,80.0,77.6,75.0,83,77,70,26.41,26.41,30,22,33,0.00
2013-8-12,89.0,84.2,82.0,77.0,75.3,73.0,80,75,66,0.00,40.00,21,16,28,0.00
2013-8-13,95.0,83.6,80.0,80.0,73.2,-99.9,86,75,59,26.41,26.41,19,14,22,0.00
2013-8-16,94.0,83.1,82.0,82.0,72.3,-99.9,87,78,66,0.00,40.00,19,13,22,0.00
2013-8-17,95.0,86.8,83.0,81.0,78.5,77.0,87,77,62,0.00,40.00,19,15,23,0.00
2013-8-18,93.0,83.7,83.0,81.0,74.5,-99.9,84,77,65,0.00,40.00,27,18,33,0.00
2013-8-19,94.0,79.7,81.0,81.0,58.2,-99.9,88,76,63,0.00,40.00,24,16,27,0.00
2013-8-20,91.0,82.7,81.0,79.0,73.4,-99.9,89,78,66,0.00,40.00,24,15,32,0.00
2013-8-21,92.0,85.7,79.0,80.0,71.0,-99.9,91,74,65,26.41,26.41,36,18,42,0.04
2013-8-22,91.0,84.9,77.0,82.0,78.9,74.0,94,83,69,26.41,26.41,25,18,40,0.24
2013-8-26,83.0,80.6,77.0,77.0,73.9,72.0,90,80,72,26.41,26.41,24,9,27,0.03
2013-8-27,81.0,79.5,77.0,76.0,73.1,71.0,93,81,71,26.41,26.41,24,9,29,0.41